Regional Weather Roundup
Issued by NWS Green Bay, WI

Home | Current Version | Previous Version | Graphics & Text | Print | Product List | Glossary Off
Versions: 1 2 3 4 5 6 7 8 9 10 11 12 13 14 15 16 17 18 19 20 21 22 23 24 25 26 27 28 29 30 31 32 33 34 35 36 37 38 39 40 41 42 43 44 45 46 47 48 49 50

687
ASUS43 KGRB 051611
RWRGRB

NORTH-CENTRAL AND NORTHEAST WISCONSIN REGIONAL WEATHER ROUNDUP
NATIONAL WEATHER SERVICE GREEN BAY WI
1000 AM CST FRI FEB 05 2016

WIZ005-009-010>012-018-019-051700-
NORTH CENTRAL WISCONSIN

CITY           SKY/WX    TMP DP  RH WIND       PRES   REMARKS
IRONWOOD       PTSUNNY   14   9  79 CALM      30.25S
MANITOWISH WTR CLOUDY    12  11  95 CALM      30.25S
ARBOR VITAE    CLOUDY    14  11  87 CALM      30.25S
EAGLE RIVER    CLOUDY    13   9  85 CALM      30.25S
LAND O LAKES   MOSUNNY   16  11  82 CALM      30.25S
RHINELANDER    SUNNY     16  11  80 N5        30.26S WCI   9
PHILLIPS       CLOUDY    10   8  91 CALM      30.28R
ANTIGO         SUNNY      7   5  91 CALM      30.28R FOG
TOMAHAWK       SUNNY     15  10  82 CALM      30.28S
MERRILL        CLOUDY    14  12  91 CALM      30.30S
$$

WIZ013-073-051700-
NORTHEAST WISCONSIN

CITY           SKY/WX    TMP DP  RH WIND       PRES   REMARKS
IRON MOUNTAIN  SUNNY     18  10  71 W5        30.26S
MARINETTE      SUNNY     21  10  63 NW6       30.32R
OCONTO         SUNNY     21  13  72 NW6       30.34S
$$

WIZ017-030-035>037-045-051700-
CENTRAL WISCONSIN

CITY           SKY/WX    TMP DP  RH WIND       PRES   REMARKS
MEDFORD        CLOUDY   N/A N/A N/A CALM      30.28R HAZE
WAUSAU         CLOUDY    17  11  77 W6        30.29S WCI   9
MOSINEE        SUNNY     18  12  79 CALM      30.31S
MARSHFIELD     CLOUDY    12   8  84 W3        30.31R FOG
WISC RAPIDS    CLOUDY    17  12  80 W5        30.35R WCI  10
STEVENS POINT  CLOUDY    18  12  79 W5        30.32S
WAUPACA        CLOUDY    22  15  73 CALM      30.35S
SHAWANO        MOSUNNY   20  13  74 CALM      30.34S
CLINTONVILLE   CLOUDY    18  14  86 CALM      30.34R
WAUTOMA        CLOUDY    20  18  92 CALM      30.35S
$$

WIZ038-039-048-051-051700-
FOX VALLEY

CITY           SKY/WX    TMP DP  RH WIND       PRES   REMARKS
NWS GREEN BAY  SUNNY     19  12  74 W6        30.35R
APPLETON       MOSUNNY   18  12  79 VRB6      30.32R WCI   9
OSHKOSH        CLOUDY    19  13  77 W5        30.34S
FOND DU LAC    CLOUDY    23  15  71 CALM      30.35R
$$

WIZ022-050-052-051700-
EAST CENTRAL WISCONSIN

CITY           SKY/WX    TMP DP  RH WIND       PRES   REMARKS
EPHRAIM        FAIR      22  15  75 NW8       30.30S
STURGEON BAY   MOSUNNY   19  12  73 NW7       30.34S
MANITOWOC      PTSUNNY   25  17  72 NW9       30.35S
SHEBOYGAN        N/A     22  14  71 NW8       30.34F
$$

LMZ563-521-522-541>543-051700-
LAKESHORE

STATION/POSITION TIME  TEMP    WIND        PRES    VSBY  WAVE
                       AIR SEA DIR/SP/G                  HT/PER
                 (UTC) (F)     (DEG/KT/KT) (MB)    (MI)  (FT/S)
SHEBOYGAN LKSHOR 1600   23     310/ 12/ 15 1028.8F
KEWAUNEE LKSHORE 1500   21     300/  5/ 11 1026.2R
ALGOMA MARINA    1540          320/ 10/ 13   N/A
CHAMBERS ISLAND  1500   24     300/  5/ 12 1026.4R
MENOMINEE LKSHOR 1500   20     310/  7     1025.5R
$$




USA.gov is the U.S. government's official web portal to all federal, state and local government web resources and services.